Tracking 35275 objects as of 8-Sep-2026
HD Live streaming from Space Station
objects crossing your sky now

COSMOS 1375 DEB

Track COSMOS 1375 DEB now!
10-day predictions


NORAD ID: 16375
Int'l Code: 1982-055P
Launch date: June 6, 1982
Source: Commonwealth of Independent States (former USSR) (CIS)
Launch site: PLESETSK MISSILE AND SPACE COMPLEX (PKMTR)

Note: This is SATELLITE DEBRIS
Your satellite tracking list
Your tracking list is empty




NASA's NSSDC Master Catalog

Two Line Element Set (TLE):
1 16375U 82055P   26250.54195784 -.00000001  00000-0  76520-4 0  9996
2 16375  65.8320 265.1076 0016858 113.6891 327.3013 13.80523842 59382
Source of the keplerian elements: AFSPC